"Pseudo-MPEC" for ZTF02s2

Created 2019 Feb 20 14:18:13 UT using Find_Orb

Click here for an explanation of pseudo-MPECs

 
 Astrometry: 
     ZTF02s2  C2019 02 10.38528609 55 31.15 +22 36 43.8    ~2E3I 18.28RUNEOCPI41
     ZTF02s2  C2019 02 10.38563309 55 29.86 +22 36 06.9    ~2E3I 18.28RUNEOCPI41
     ZTF02s2  C2019 02 10.39111209 55 08.70 +22 26 05.1    ~2E3I 18.23RUNEOCPI41
     ZTF02s2  C2019 02 10.39145909 55 07.36 +22 25 27.0    ~2E3I 18.23RUNEOCPI41
     ZTF02s2  C2019 02 10.39691509 54 46.42 +22 15 24.7    ~2E3I 17.97RUNEOCPI41
     ZTF02s2  C2019 02 10.39726209 54 45.12 +22 14 47.0    ~2E3I 17.97RUNEOCPI41
     ZTF02s2  C2019 02 10.39981309 54 35.58 +22 09 59.2    ~2AL3 18.27RUNEOCPI41
     ZTF02s2  C2019 02 10.40015909 54 34.26 +22 09 22.2    ~2AL3 18.27RUNEOCPI41
     ZTF02s2  C2019 02 10.40270409 54 24.26 +22 04 44.8    ~2E3I 18.04RUNEOCPI41
     ZTF02s2  C2019 02 10.40305209 54 22.92 +22 04 06.3    ~2E3I 18.04RUNEOCPI41
     ZTF02s2  C2019 02 10.40848209 54 02.12 +21 54 02.7    ~2E3I 18.07RUNEOCPI41
     ZTF02s2  C2019 02 10.40882909 54 00.69 +21 53 24.6    ~2E3I 18.07RUNEOCPI41
     ZTF02s2  C2019 02 10.41714009 53 28.70 +21 37 53.5    ~2E3I 18.72RUNEOCPI41
     ZTF02s2  C2019 02 10.41748709 53 27.34 +21 37 16.4    ~2E3I 18.72RUNEOCPI41

Station data:
(I41) Palomar Mountain--ZTF  (N33.357340 W116.859780)  US/California. 1.2-m
   f/2.44 Oschin Schmidt + CCD.

Orbital elements:  ZTF02s2
   Perihelion 2019 Jan 11.764563 TT = 18:20:58 (JD 2458495.264563)
Epoch 2019 Feb 10.0 TT = JDT 2458524.5   Earth MOID: 0.0108   AutoNEOCP
M  24.19820442                      (J2000 ecliptic)
n   0.82770115     Peri.  148.15930
a   1.12344981     Node   321.37592
e   0.1269676      Incl.   20.11524
P   1.19/434.93d   H   27.9     G   0.15   q 0.98080804  Q 1.26609157
From 14 observations 2019 Feb. 10 (46.4 min); mean residual 3".06
Residuals in arcseconds: 
190210 I41  3.1-  5.1-    190210 I41  .68+  3.3+    190210 I41  1.8+  2.6+    
190210 I41  2.3-  3.7-    190210 I41  4.6+  1.9-    190210 I41  .42+  3.0+    
190210 I41  1.5-  .56+    190210 I41  4.7+  .57-    190210 I41  3.4-  5.7-    
190210 I41  1.5-  .86+    190210 I41  1.7+  4.1+    190210 I41  4.0-  4.2-    
190210 I41  .16+  2.6+    190210 I41  1.6+  4.1+    

Ephemerides (geocentric):
Date (UTC) HH   RA              Dec         delta   r     elong  mag
---- -- -- --  -------------   -----------  ------ ------ -----  ---
2019 02 20 14  07 16 57.104   -50 43 55.12  .06482 1.0099 107.4 24.5
2019 02 20 15  07 16 49.042   -50 45 40.60  .06508 1.0100 107.3 24.5
2019 02 20 16  07 16 41.040   -50 47 25.16  .06533 1.0101 107.3 24.5
2019 02 20 17  07 16 33.097   -50 49 08.80  .06559 1.0101 107.2 24.5
2019 02 20 18  07 16 25.212   -50 50 51.54  .06585 1.0102 107.2 24.5
2019 02 20 19  07 16 17.386   -50 52 33.39  .06610 1.0102 107.2 24.5
2019 02 20 20  07 16 09.617   -50 54 14.36  .06636 1.0103 107.1 24.5
2019 02 20 21  07 16 01.905   -50 55 54.46  .06661 1.0103 107.1 24.5
2019 02 20 22  07 15 54.250   -50 57 33.69  .06687 1.0104 107.0 24.5
2019 02 20 23  07 15 46.650   -50 59 12.07  .06713 1.0105 107.0 24.5
2019 02 21 00  07 15 39.106   -51 00 49.62  .06738 1.0105 107.0 24.5
2019 02 21 01  07 15 31.617   -51 02 26.33  .06764 1.0106 106.9 24.6
2019 02 21 02  07 15 24.183   -51 04 02.22  .06790 1.0106 106.9 24.6
2019 02 21 03  07 15 16.802   -51 05 37.29  .06815 1.0107 106.8 24.6
2019 02 21 04  07 15 09.475   -51 07 11.56  .06841 1.0107 106.8 24.6
2019 02 21 05  07 15 02.201   -51 08 45.04  .06866 1.0108 106.8 24.6
2019 02 21 06  07 14 54.979   -51 10 17.74  .06892 1.0109 106.7 24.6
2019 02 21 07  07 14 47.809   -51 11 49.66  .06918 1.0109 106.7 24.6
2019 02 21 08  07 14 40.691   -51 13 20.81  .06943 1.0110 106.7 24.6
2019 02 21 09  07 14 33.623   -51 14 51.20  .06969 1.0110 106.6 24.6
2019 02 21 10  07 14 26.607   -51 16 20.84  .06994 1.0111 106.6 24.6
2019 02 21 11  07 14 19.640   -51 17 49.74  .07020 1.0111 106.6 24.6
2019 02 21 12  07 14 12.724   -51 19 17.90  .07046 1.0112 106.5 24.7
2019 02 21 13  07 14 05.856   -51 20 45.34  .07071 1.0113 106.5 24.7
2019 02 21 14  07 13 59.038   -51 22 12.06  .07097 1.0113 106.5 24.7
2019 02 21 15  07 13 52.268   -51 23 38.08  .07123 1.0114 106.4 24.7
2019 02 21 16  07 13 45.546   -51 25 03.38  .07148 1.0114 106.4 24.7
2019 02 21 17  07 13 38.871   -51 26 28.00  .07174 1.0115 106.4 24.7
2019 02 21 18  07 13 32.244   -51 27 51.93  .07199 1.0116 106.3 24.7
2019 02 21 19  07 13 25.663   -51 29 15.18  .07225 1.0116 106.3 24.7
2019 02 21 20  07 13 19.129   -51 30 37.75  .07251 1.0117 106.3 24.7
2019 02 21 21  07 13 12.641   -51 31 59.66  .07276 1.0117 106.2 24.7
2019 02 21 22  07 13 06.199   -51 33 20.92  .07302 1.0118 106.2 24.7
2019 02 21 23  07 12 59.802   -51 34 41.52  .07327 1.0119 106.2 24.7
2019 02 22 00  07 12 53.449   -51 36 01.48  .07353 1.0119 106.1 24.8
2019 02 22 01  07 12 47.141   -51 37 20.80  .07379 1.0120 106.1 24.8
2019 02 22 02  07 12 40.878   -51 38 39.49  .07404 1.0120 106.1 24.8
2019 02 22 03  07 12 34.657   -51 39 57.56  .07430 1.0121 106.0 24.8
2019 02 22 04  07 12 28.481   -51 41 15.00  .07455 1.0121 106.0 24.8
2019 02 22 05  07 12 22.347   -51 42 31.84  .07481 1.0122 106.0 24.8
2019 02 22 06  07 12 16.256   -51 43 48.08  .07507 1.0123 105.9 24.8
2019 02 22 07  07 12 10.207   -51 45 03.71  .07532 1.0123 105.9 24.8
2019 02 22 08  07 12 04.200   -51 46 18.75  .07558 1.0124 105.9 24.8
2019 02 22 09  07 11 58.235   -51 47 33.21  .07583 1.0124 105.8 24.8
2019 02 22 10  07 11 52.311   -51 48 47.09  .07609 1.0125 105.8 24.8
2019 02 22 11  07 11 46.428   -51 50 00.39  .07635 1.0126 105.8 24.8
2019 02 22 12  07 11 40.586   -51 51 13.12  .07660 1.0126 105.8 24.8
2019 02 22 13  07 11 34.784   -51 52 25.29  .07686 1.0127 105.7 24.9